Year,Month,Day,Hour,Minute,Value (Times are PST for temperature in C)
2009,07,16,00,00,14.50
2009,07,16,00,01,14.50
2009,07,16,00,02,14.50
2009,07,16,00,03,14.50
2009,07,16,00,04,14.60
2009,07,16,00,05,14.60
2009,07,16,00,06,14.70
2009,07,16,00,07,14.70
2009,07,16,00,08,14.70
2009,07,16,00,09,14.80
2009,07,16,00,10,14.80
2009,07,16,00,11,14.80
2009,07,16,00,12,14.80
2009,07,16,00,13,14.80
2009,07,16,00,14,14.80
2009,07,16,00,15,14.80
2009,07,16,00,16,14.80
2009,07,16,00,17,14.80
2009,07,16,00,18,14.80
2009,07,16,00,19,14.80
2009,07,16,00,20,14.70
2009,07,16,00,21,14.70
2009,07,16,00,22,14.70
2009,07,16,00,23,14.60
2009,07,16,00,24,14.50
2009,07,16,00,25,14.50
2009,07,16,00,26,14.40
2009,07,16,00,27,14.40
2009,07,16,00,28,14.30
2009,07,16,00,29,14.30
2009,07,16,00,30,14.30
2009,07,16,00,31,14.30
2009,07,16,00,32,14.20
2009,07,16,00,33,14.20
2009,07,16,00,34,14.20
2009,07,16,00,35,14.20
2009,07,16,00,36,14.10
2009,07,16,00,37,14.10
2009,07,16,00,38,14.10
2009,07,16,00,39,14.10
2009,07,16,00,40,14.10
2009,07,16,00,41,14.00
2009,07,16,00,42,14.00
2009,07,16,00,43,14.00
2009,07,16,00,44,14.00
2009,07,16,00,45,13.90
2009,07,16,00,46,13.90
2009,07,16,00,47,13.90
2009,07,16,00,48,13.90
2009,07,16,00,49,13.80
2009,07,16,00,50,13.80
2009,07,16,00,51,13.80
2009,07,16,00,52,13.80
2009,07,16,00,53,13.80
2009,07,16,00,54,13.70
2009,07,16,00,55,13.70
2009,07,16,00,56,13.70
2009,07,16,00,57,13.70
2009,07,16,00,58,13.70
2009,07,16,00,59,13.60
2009,07,16,01,00,13.60
2009,07,16,01,01,13.60
2009,07,16,01,02,13.60
2009,07,16,01,03,13.60
2009,07,16,01,04,13.60
2009,07,16,01,05,13.60
2009,07,16,01,06,13.50
2009,07,16,01,07,13.50
2009,07,16,01,08,13.50
2009,07,16,01,09,13.50
2009,07,16,01,10,13.50
2009,07,16,01,11,13.50
2009,07,16,01,12,13.50
2009,07,16,01,13,13.50
2009,07,16,01,14,13.50
2009,07,16,01,15,13.50
2009,07,16,01,16,13.50
2009,07,16,01,17,13.50
2009,07,16,01,18,13.50
2009,07,16,01,19,13.50
2009,07,16,01,20,13.50
2009,07,16,01,21,13.50
2009,07,16,01,22,13.50
2009,07,16,01,23,13.50
2009,07,16,01,24,13.40
2009,07,16,01,25,13.40
2009,07,16,01,26,13.40
2009,07,16,01,27,13.40
2009,07,16,01,28,13.40
2009,07,16,01,29,13.40
2009,07,16,01,30,13.40
2009,07,16,01,31,13.40
2009,07,16,01,32,13.30
2009,07,16,01,33,13.30
2009,07,16,01,34,13.30
2009,07,16,01,35,13.30
2009,07,16,01,36,13.20
2009,07,16,01,37,13.20
2009,07,16,01,38,13.20
2009,07,16,01,39,13.20
2009,07,16,01,40,13.20
2009,07,16,01,41,13.20
2009,07,16,01,42,13.20
2009,07,16,01,43,13.20
2009,07,16,01,44,13.20
2009,07,16,01,45,13.20
2009,07,16,01,46,13.20
2009,07,16,01,47,13.10
2009,07,16,01,48,13.10
2009,07,16,01,49,13.10
2009,07,16,01,50,13.10
2009,07,16,01,51,13.10
2009,07,16,01,52,13.00
2009,07,16,01,53,13.00
2009,07,16,01,54,12.90
2009,07,16,01,55,12.90
2009,07,16,01,56,12.80
2009,07,16,01,57,12.80
2009,07,16,01,58,12.80
2009,07,16,01,59,12.80
2009,07,16,02,00,12.70
2009,07,16,02,01,12.70
2009,07,16,02,02,12.70
2009,07,16,02,03,12.70
2009,07,16,02,04,12.70
2009,07,16,02,05,12.70
2009,07,16,02,06,12.70
2009,07,16,02,07,12.60
2009,07,16,02,08,12.60
2009,07,16,02,09,12.60
2009,07,16,02,10,12.60
2009,07,16,02,11,12.60
2009,07,16,02,12,12.50
2009,07,16,02,13,12.50
2009,07,16,02,14,12.40
2009,07,16,02,15,12.40
2009,07,16,02,16,12.40
2009,07,16,02,17,12.40
2009,07,16,02,18,12.30
2009,07,16,02,19,12.30
2009,07,16,02,20,12.30
2009,07,16,02,21,12.30
2009,07,16,02,22,12.30
2009,07,16,02,23,12.20
2009,07,16,02,24,12.20
2009,07,16,02,25,12.20
2009,07,16,02,26,12.20
2009,07,16,02,27,12.20
2009,07,16,02,28,12.20
2009,07,16,02,29,12.20
2009,07,16,02,30,12.10
2009,07,16,02,31,12.10
2009,07,16,02,32,12.10
2009,07,16,02,33,12.10
2009,07,16,02,34,12.10
2009,07,16,02,35,12.10
2009,07,16,02,36,12.00
2009,07,16,02,37,12.00
2009,07,16,02,38,12.00
2009,07,16,02,39,12.00
2009,07,16,02,40,11.90
2009,07,16,02,41,11.90
2009,07,16,02,42,11.90
2009,07,16,02,43,11.90
2009,07,16,02,44,11.90
2009,07,16,02,45,11.90
2009,07,16,02,46,11.90
2009,07,16,02,47,11.90
2009,07,16,02,48,11.80
2009,07,16,02,49,11.80
2009,07,16,02,50,11.80
2009,07,16,02,51,11.80
2009,07,16,02,52,11.80
2009,07,16,02,53,11.80
2009,07,16,02,54,11.80
2009,07,16,02,55,11.70
2009,07,16,02,56,11.70
2009,07,16,02,57,11.70
2009,07,16,02,58,11.70
2009,07,16,02,59,11.70
2009,07,16,03,00,11.70
2009,07,16,03,01,11.70
2009,07,16,03,02,11.70
2009,07,16,03,03,11.70
2009,07,16,03,04,11.60
2009,07,16,03,05,11.60
2009,07,16,03,06,11.60
2009,07,16,03,07,11.60
2009,07,16,03,08,11.60
2009,07,16,03,09,11.60
2009,07,16,03,10,11.50
2009,07,16,03,11,11.50
2009,07,16,03,12,11.50
2009,07,16,03,13,11.50
2009,07,16,03,14,11.50
2009,07,16,03,15,11.50
2009,07,16,03,16,11.50
2009,07,16,03,17,11.50
2009,07,16,03,18,11.50
2009,07,16,03,19,11.50
2009,07,16,03,20,11.50
2009,07,16,03,21,11.50
2009,07,16,03,22,11.50
2009,07,16,03,23,11.50
2009,07,16,03,24,11.50
2009,07,16,03,25,11.50
2009,07,16,03,26,11.50
2009,07,16,03,27,11.50
2009,07,16,03,28,11.50
2009,07,16,03,29,11.50
2009,07,16,03,30,11.50
2009,07,16,03,31,11.50
2009,07,16,03,32,11.50
2009,07,16,03,33,11.50
2009,07,16,03,34,11.50
2009,07,16,03,35,11.50
2009,07,16,03,36,11.40
2009,07,16,03,37,11.40
2009,07,16,03,38,11.40
2009,07,16,03,39,11.40
2009,07,16,03,40,11.40
2009,07,16,03,41,11.40
2009,07,16,03,42,11.40
2009,07,16,03,43,11.40
2009,07,16,03,44,11.40
2009,07,16,03,45,11.30
2009,07,16,03,46,11.30
2009,07,16,03,47,11.30
2009,07,16,03,48,11.30
2009,07,16,03,49,11.30
2009,07,16,03,50,11.30
2009,07,16,03,51,11.30
2009,07,16,03,52,11.30
2009,07,16,03,53,11.30
2009,07,16,03,54,11.30
2009,07,16,03,55,11.30
2009,07,16,03,56,11.30
2009,07,16,03,57,11.30
2009,07,16,03,58,11.30
2009,07,16,03,59,11.20
2009,07,16,04,00,11.20
2009,07,16,04,01,11.20
2009,07,16,04,02,11.20
2009,07,16,04,03,11.20
2009,07,16,04,04,11.20
2009,07,16,04,05,11.20
2009,07,16,04,08,11.20
2009,07,16,04,09,11.20
2009,07,16,04,10,11.20
2009,07,16,04,11,11.20
2009,07,16,04,12,11.20
2009,07,16,04,13,11.20
2009,07,16,04,14,11.20
2009,07,16,04,15,11.10
2009,07,16,04,16,11.10
2009,07,16,04,17,11.10
2009,07,16,04,18,11.10
2009,07,16,04,19,11.10
2009,07,16,04,20,11.10
2009,07,16,04,21,11.10
2009,07,16,04,22,11.10
2009,07,16,04,23,11.10
2009,07,16,04,24,11.10
2009,07,16,04,25,11.10
2009,07,16,04,26,11.10
2009,07,16,04,27,11.10
2009,07,16,04,28,11.20
2009,07,16,04,29,11.20
2009,07,16,04,30,11.20
2009,07,16,04,31,11.20
2009,07,16,04,32,11.20
2009,07,16,04,33,11.20
2009,07,16,04,34,11.10
2009,07,16,04,35,11.10
2009,07,16,04,36,11.10
2009,07,16,04,37,11.10
2009,07,16,04,38,11.10
2009,07,16,04,39,11.10
2009,07,16,04,40,11.10
2009,07,16,04,41,11.10
2009,07,16,04,42,11.10
2009,07,16,04,43,11.10
2009,07,16,04,44,11.10
2009,07,16,04,45,11.10
2009,07,16,04,46,11.10
2009,07,16,04,47,11.10
2009,07,16,04,48,11.10
2009,07,16,04,49,11.10
2009,07,16,04,50,11.10
2009,07,16,04,51,11.10
2009,07,16,04,52,11.10
2009,07,16,04,53,11.10
2009,07,16,04,54,11.10
2009,07,16,04,55,11.10
2009,07,16,04,56,11.10
2009,07,16,04,57,11.10
2009,07,16,04,58,11.10
2009,07,16,04,59,11.10
2009,07,16,05,00,11.10
2009,07,16,05,01,11.10
2009,07,16,05,02,11.10
2009,07,16,05,03,11.10
2009,07,16,05,04,11.10
2009,07,16,05,05,11.00
2009,07,16,05,06,11.00
2009,07,16,05,07,11.00
2009,07,16,05,08,11.00
2009,07,16,05,09,11.00
2009,07,16,05,10,11.00
2009,07,16,05,11,10.90
2009,07,16,05,12,10.90
2009,07,16,05,13,10.90
2009,07,16,05,14,10.90
2009,07,16,05,15,10.90
2009,07,16,05,16,10.90
2009,07,16,05,17,10.90
2009,07,16,05,18,10.90
2009,07,16,05,19,10.90
2009,07,16,05,20,10.90
2009,07,16,05,21,10.90
2009,07,16,05,22,10.90
2009,07,16,05,23,10.90
2009,07,16,05,24,10.90
2009,07,16,05,25,10.90
2009,07,16,05,26,10.90
2009,07,16,05,27,10.90
2009,07,16,05,28,10.90
2009,07,16,05,29,10.90
2009,07,16,05,30,10.90
2009,07,16,05,31,10.90
2009,07,16,05,32,10.90
2009,07,16,05,33,10.90
2009,07,16,05,34,10.90
2009,07,16,05,35,10.80
2009,07,16,05,36,10.80
2009,07,16,05,37,10.80
2009,07,16,05,38,10.80
2009,07,16,05,39,10.80
2009,07,16,05,40,10.80
2009,07,16,05,41,10.80
2009,07,16,05,42,10.80
2009,07,16,05,43,10.80
2009,07,16,05,44,10.80
2009,07,16,05,45,10.80
2009,07,16,05,46,10.80
2009,07,16,05,47,10.80
2009,07,16,05,48,10.80
2009,07,16,05,49,10.80
2009,07,16,05,50,10.80
2009,07,16,05,51,10.80
2009,07,16,05,52,10.80
2009,07,16,05,53,10.80
2009,07,16,05,54,10.80
2009,07,16,05,55,10.90
2009,07,16,05,56,10.90
2009,07,16,05,57,10.90
2009,07,16,05,58,10.90
2009,07,16,05,59,11.00
2009,07,16,06,00,11.00
2009,07,16,06,01,11.00
2009,07,16,06,02,11.10
2009,07,16,06,03,11.10
2009,07,16,06,04,11.10
2009,07,16,06,05,11.10
2009,07,16,06,06,11.10
2009,07,16,06,07,11.20
2009,07,16,06,08,11.20
2009,07,16,06,09,11.20
2009,07,16,06,10,11.20
2009,07,16,06,11,11.20
2009,07,16,06,12,11.30
2009,07,16,06,13,11.30
2009,07,16,06,14,11.30
2009,07,16,06,15,11.30
2009,07,16,06,16,11.30
2009,07,16,06,17,11.30
2009,07,16,06,18,11.40
2009,07,16,06,19,11.40
2009,07,16,06,20,11.40
2009,07,16,06,21,11.50
2009,07,16,06,22,11.50
2009,07,16,06,23,11.50
2009,07,16,06,24,11.60
2009,07,16,06,25,11.60
2009,07,16,06,26,11.60
2009,07,16,06,27,11.60
2009,07,16,06,28,11.60
2009,07,16,06,29,11.60
2009,07,16,06,30,11.70
2009,07,16,06,31,11.70
2009,07,16,06,32,11.70
2009,07,16,06,33,11.70
2009,07,16,06,34,11.80
2009,07,16,06,35,11.80
2009,07,16,06,36,11.80
2009,07,16,06,37,11.90
2009,07,16,06,38,11.90
2009,07,16,06,39,11.90
2009,07,16,06,40,12.00
2009,07,16,06,41,12.00
2009,07,16,06,42,12.10
2009,07,16,06,43,12.10
2009,07,16,06,44,12.10
2009,07,16,06,45,12.10
2009,07,16,06,46,12.20
2009,07,16,06,47,12.20
2009,07,16,06,48,12.20
2009,07,16,06,49,12.20
2009,07,16,06,50,12.20
2009,07,16,06,51,12.30
2009,07,16,06,52,12.30
2009,07,16,06,53,12.30
2009,07,16,06,54,12.30
2009,07,16,06,55,12.40
2009,07,16,06,56,12.40
2009,07,16,06,57,12.40
2009,07,16,06,58,12.50
2009,07,16,06,59,12.50
2009,07,16,07,00,12.50
2009,07,16,07,01,12.60
2009,07,16,07,02,12.60
2009,07,16,07,03,12.70
2009,07,16,07,04,12.70
2009,07,16,07,05,12.80
2009,07,16,07,06,12.80
2009,07,16,07,07,12.90
2009,07,16,07,08,12.90
2009,07,16,07,09,12.90
2009,07,16,07,10,13.00
2009,07,16,07,11,13.00
2009,07,16,07,12,13.10
2009,07,16,07,13,13.10
2009,07,16,07,14,13.10
2009,07,16,07,15,13.20
2009,07,16,07,16,13.20
2009,07,16,07,17,13.20
2009,07,16,07,18,13.30
2009,07,16,07,19,13.30
2009,07,16,07,20,13.40
2009,07,16,07,21,13.40
2009,07,16,07,22,13.40
2009,07,16,07,23,13.50
2009,07,16,07,24,13.50
2009,07,16,07,25,13.50
2009,07,16,07,26,13.40
2009,07,16,07,27,13.40
2009,07,16,07,28,13.40
2009,07,16,07,29,13.40
2009,07,16,07,30,13.40
2009,07,16,07,31,13.40
2009,07,16,07,32,13.40
2009,07,16,07,33,13.40
2009,07,16,07,34,13.40
2009,07,16,07,35,13.40
2009,07,16,07,36,13.40
2009,07,16,07,37,13.40
2009,07,16,07,38,13.40
2009,07,16,07,39,13.40
2009,07,16,07,40,13.40
2009,07,16,07,41,13.40
2009,07,16,07,42,13.40
2009,07,16,07,43,13.40
2009,07,16,07,44,13.40
2009,07,16,07,45,13.30
2009,07,16,07,46,13.30
2009,07,16,07,47,13.30
2009,07,16,07,48,13.30
2009,07,16,07,49,13.30
2009,07,16,07,50,13.40
2009,07,16,07,51,13.40
2009,07,16,07,52,13.50
2009,07,16,07,53,13.50
2009,07,16,07,54,13.60
2009,07,16,07,55,13.60
2009,07,16,07,56,13.60
2009,07,16,07,57,13.60
2009,07,16,07,58,13.60
2009,07,16,07,59,13.60
2009,07,16,08,00,13.70
2009,07,16,08,01,13.70
2009,07,16,08,02,13.70
2009,07,16,08,03,13.60
2009,07,16,08,04,13.60
2009,07,16,08,05,13.70
2009,07,16,08,06,13.60
2009,07,16,08,07,13.60
2009,07,16,08,08,13.70
2009,07,16,08,09,13.70
2009,07,16,08,10,13.70
2009,07,16,08,11,13.70
2009,07,16,08,12,13.80
2009,07,16,08,13,13.80
2009,07,16,08,14,13.80
2009,07,16,08,15,13.80
2009,07,16,08,16,13.70
2009,07,16,08,17,13.70
2009,07,16,08,18,13.60
2009,07,16,08,19,13.60
2009,07,16,08,20,13.60
2009,07,16,08,21,13.50
2009,07,16,08,22,13.50
2009,07,16,08,23,13.50
2009,07,16,08,24,13.60
2009,07,16,08,25,13.60
2009,07,16,08,26,13.70
2009,07,16,08,27,13.80
2009,07,16,08,28,13.90
2009,07,16,08,29,13.90
2009,07,16,08,30,13.90
2009,07,16,08,31,13.80
2009,07,16,08,32,13.80
2009,07,16,08,33,13.80
2009,07,16,08,34,13.90
2009,07,16,08,35,13.90
2009,07,16,08,36,13.90
2009,07,16,08,37,13.90
2009,07,16,08,38,13.90
2009,07,16,08,39,14.00
2009,07,16,08,40,14.00
2009,07,16,08,41,14.00
2009,07,16,08,42,14.10
2009,07,16,08,43,14.10
2009,07,16,08,44,14.10
2009,07,16,08,45,14.20
2009,07,16,08,46,14.10
2009,07,16,08,47,14.10
2009,07,16,08,48,14.10
2009,07,16,08,49,14.10
2009,07,16,08,50,14.10
2009,07,16,08,51,14.10
2009,07,16,08,52,14.10
2009,07,16,08,53,14.10
2009,07,16,08,54,14.10
2009,07,16,08,55,14.10
2009,07,16,08,56,14.00
2009,07,16,08,57,14.00
2009,07,16,08,58,14.10
2009,07,16,08,59,14.10
2009,07,16,09,00,14.20
2009,07,16,09,01,14.30
2009,07,16,09,02,14.30
2009,07,16,09,03,14.40
2009,07,16,09,04,14.40
2009,07,16,09,05,14.40
2009,07,16,09,06,14.50
2009,07,16,09,07,14.50
2009,07,16,09,08,14.60
2009,07,16,09,09,14.50
2009,07,16,09,10,14.50
2009,07,16,09,11,14.50
2009,07,16,09,12,14.50
2009,07,16,09,13,14.50
2009,07,16,09,14,14.60
2009,07,16,09,15,14.60
2009,07,16,09,16,14.60
2009,07,16,09,17,14.50
2009,07,16,09,18,14.40
2009,07,16,09,19,14.40
2009,07,16,09,20,14.40
2009,07,16,09,21,14.40
2009,07,16,09,22,14.30
2009,07,16,09,23,14.20
2009,07,16,09,24,14.20
2009,07,16,09,25,14.20
2009,07,16,09,26,14.20
2009,07,16,09,27,14.20
2009,07,16,09,28,14.20
2009,07,16,09,29,14.30
2009,07,16,09,30,14.30
2009,07,16,09,31,14.50
2009,07,16,09,32,14.60
2009,07,16,09,33,14.70
2009,07,16,09,34,14.80
2009,07,16,09,35,14.80
2009,07,16,09,36,14.80
2009,07,16,09,37,14.80
2009,07,16,09,38,14.90
2009,07,16,09,39,14.90
2009,07,16,09,40,15.00
2009,07,16,09,41,15.00
2009,07,16,09,42,15.00
2009,07,16,09,43,15.00
2009,07,16,09,44,15.00
2009,07,16,09,45,15.10
2009,07,16,09,46,15.20
2009,07,16,09,47,15.30
2009,07,16,09,48,15.30
2009,07,16,09,49,15.30
2009,07,16,09,50,15.30
2009,07,16,09,51,15.20
2009,07,16,09,52,15.00
2009,07,16,09,53,15.00
2009,07,16,09,54,15.00
2009,07,16,09,55,15.00
2009,07,16,09,56,15.00
2009,07,16,09,57,15.00
2009,07,16,09,58,15.00
2009,07,16,09,59,15.10
2009,07,16,10,00,15.20
2009,07,16,10,01,15.30
2009,07,16,10,02,15.20
2009,07,16,10,03,15.20
2009,07,16,10,04,15.30
2009,07,16,10,05,15.20
2009,07,16,10,06,15.20
2009,07,16,10,07,15.20
2009,07,16,10,08,15.30
2009,07,16,10,09,15.40
2009,07,16,10,10,15.50
2009,07,16,10,11,15.60
2009,07,16,10,12,15.60
2009,07,16,10,13,15.60
2009,07,16,10,14,15.60
2009,07,16,10,15,15.50
2009,07,16,10,16,15.50
2009,07,16,10,17,15.60
2009,07,16,10,18,15.60
2009,07,16,10,19,15.60
2009,07,16,10,20,15.50
2009,07,16,10,21,15.50
2009,07,16,10,22,15.60
2009,07,16,10,23,15.60
2009,07,16,10,24,15.70
2009,07,16,10,25,15.80
2009,07,16,10,26,15.80
2009,07,16,10,27,15.80
2009,07,16,10,28,15.90
2009,07,16,10,29,16.00
2009,07,16,10,30,16.10
2009,07,16,10,31,16.20
2009,07,16,10,32,16.30
2009,07,16,10,33,16.50
2009,07,16,10,34,16.60
2009,07,16,10,35,16.60
2009,07,16,10,36,16.60
2009,07,16,10,37,16.60
2009,07,16,10,38,16.50
2009,07,16,10,39,16.40
2009,07,16,10,40,16.50
2009,07,16,10,41,16.50
2009,07,16,10,42,16.50
2009,07,16,10,43,16.50
2009,07,16,10,44,16.50
2009,07,16,10,45,16.50
2009,07,16,10,46,16.60
2009,07,16,10,47,16.60
2009,07,16,10,48,16.60
2009,07,16,10,49,16.70
2009,07,16,10,50,16.80
2009,07,16,10,51,16.80
2009,07,16,10,52,16.90
2009,07,16,10,53,17.00
2009,07,16,10,54,17.00
2009,07,16,10,55,17.10
2009,07,16,10,56,17.10
2009,07,16,10,57,17.20
2009,07,16,10,58,17.20
2009,07,16,10,59,17.20
2009,07,16,11,00,17.20
2009,07,16,11,01,17.30
2009,07,16,11,02,17.40
2009,07,16,11,03,17.50
2009,07,16,11,04,17.50
2009,07,16,11,05,17.60
2009,07,16,11,06,17.70
2009,07,16,11,07,17.80
2009,07,16,11,08,18.00
2009,07,16,11,09,18.10
2009,07,16,11,10,18.20
2009,07,16,11,11,18.30
2009,07,16,11,12,18.30
2009,07,16,11,13,18.40
2009,07,16,11,14,18.50
2009,07,16,11,15,18.60
2009,07,16,11,16,18.60
2009,07,16,11,17,18.60
2009,07,16,11,18,18.70
2009,07,16,11,19,18.70
2009,07,16,11,20,18.70
2009,07,16,11,21,18.80
2009,07,16,11,22,18.80
2009,07,16,11,23,18.90
2009,07,16,11,24,18.90
2009,07,16,11,25,18.90
2009,07,16,11,26,18.90
2009,07,16,11,27,18.90
2009,07,16,11,28,18.90
2009,07,16,11,29,18.90
2009,07,16,11,30,18.90
2009,07,16,11,31,18.90
2009,07,16,11,32,18.90
2009,07,16,11,33,18.90
2009,07,16,11,34,19.00
2009,07,16,11,35,19.10
2009,07,16,11,36,19.30
2009,07,16,11,37,19.50
2009,07,16,11,38,19.70
2009,07,16,11,39,19.80
2009,07,16,11,40,19.80
2009,07,16,11,41,19.80
2009,07,16,11,42,19.70
2009,07,16,11,43,19.60
2009,07,16,11,44,19.40
2009,07,16,11,45,19.20
2009,07,16,11,46,19.20
2009,07,16,11,47,19.10
2009,07,16,11,48,19.00
2009,07,16,11,49,18.90
2009,07,16,11,50,18.90
2009,07,16,11,51,18.90
2009,07,16,11,52,18.90
2009,07,16,11,53,18.90
2009,07,16,11,54,19.00
2009,07,16,11,55,19.10
2009,07,16,11,56,19.20
2009,07,16,11,57,19.30
2009,07,16,11,58,19.40
2009,07,16,11,59,19.50
2009,07,16,12,00,19.50
2009,07,16,12,01,19.60
2009,07,16,12,02,19.70
2009,07,16,12,03,19.80
2009,07,16,12,04,19.90
2009,07,16,12,05,19.90
2009,07,16,12,06,19.90
2009,07,16,12,07,19.90
2009,07,16,12,08,19.90
2009,07,16,12,09,19.90
2009,07,16,12,10,19.90
2009,07,16,12,11,20.00
2009,07,16,12,12,20.20
2009,07,16,12,13,20.30
2009,07,16,12,14,20.40
2009,07,16,12,15,20.40
2009,07,16,12,16,20.40
2009,07,16,12,17,20.40
2009,07,16,12,18,20.40
2009,07,16,12,19,20.40
2009,07,16,12,20,20.40
2009,07,16,12,21,20.40
2009,07,16,12,22,20.30
2009,07,16,12,23,20.20
2009,07,16,12,24,20.00
2009,07,16,12,25,19.90
2009,07,16,12,26,19.90
2009,07,16,12,27,19.90
2009,07,16,12,28,19.90
2009,07,16,12,29,19.90
2009,07,16,12,30,19.90
2009,07,16,12,31,19.90
2009,07,16,12,32,19.90
2009,07,16,12,33,20.00
2009,07,16,12,34,20.10
2009,07,16,12,35,20.20
2009,07,16,12,36,20.20
2009,07,16,12,37,20.20
2009,07,16,12,38,20.20
2009,07,16,12,39,20.10
2009,07,16,12,40,20.10
2009,07,16,12,41,20.20
2009,07,16,12,42,20.40
2009,07,16,12,43,20.50
2009,07,16,12,44,20.70
2009,07,16,12,45,20.90
2009,07,16,12,46,21.00
2009,07,16,12,47,21.10
2009,07,16,12,48,21.20
2009,07,16,12,49,21.40
2009,07,16,12,50,21.70
2009,07,16,12,51,21.80
2009,07,16,12,52,21.80
2009,07,16,12,53,21.80
2009,07,16,12,54,21.60
2009,07,16,12,55,21.50
2009,07,16,12,56,21.40
2009,07,16,12,57,21.40
2009,07,16,12,58,21.30
2009,07,16,12,59,21.30
2009,07,16,13,00,21.30
2009,07,16,13,01,21.40
2009,07,16,13,02,21.50
2009,07,16,13,03,21.60
2009,07,16,13,04,21.80
2009,07,16,13,05,21.80
2009,07,16,13,06,21.80
2009,07,16,13,07,21.90
2009,07,16,13,08,22.00
2009,07,16,13,09,22.10
2009,07,16,13,10,22.20
2009,07,16,13,11,22.10
2009,07,16,13,12,22.00
2009,07,16,13,13,22.00
2009,07,16,13,14,21.90
2009,07,16,13,15,21.80
2009,07,16,13,16,21.70
2009,07,16,13,17,21.80
2009,07,16,13,18,21.80
2009,07,16,13,19,21.80
2009,07,16,13,20,21.90
2009,07,16,13,21,21.90
2009,07,16,13,22,22.00
2009,07,16,13,23,22.10
2009,07,16,13,24,22.20
2009,07,16,13,25,22.30
2009,07,16,13,26,22.40
2009,07,16,13,27,22.40
2009,07,16,13,28,22.50
2009,07,16,13,29,22.60
2009,07,16,13,30,22.70
2009,07,16,13,31,22.80
2009,07,16,13,32,22.80
2009,07,16,13,33,22.80
2009,07,16,13,34,22.80
2009,07,16,13,35,22.80
2009,07,16,13,36,22.80
2009,07,16,13,37,22.80
2009,07,16,13,38,22.80
2009,07,16,13,39,22.70
2009,07,16,13,40,22.60
2009,07,16,13,41,22.60
2009,07,16,13,42,22.50
2009,07,16,13,43,22.40
2009,07,16,13,44,22.40
2009,07,16,13,45,22.40
2009,07,16,13,46,22.30
2009,07,16,13,47,22.40
2009,07,16,13,48,22.40
2009,07,16,13,49,22.40
2009,07,16,13,50,22.50
2009,07,16,13,51,22.50
2009,07,16,13,52,22.50
2009,07,16,13,53,22.50
2009,07,16,13,54,22.40
2009,07,16,13,55,22.40
2009,07,16,13,56,22.50
2009,07,16,13,57,22.60
2009,07,16,13,58,22.60
2009,07,16,13,59,22.70
2009,07,16,14,00,22.70
2009,07,16,14,01,22.70
2009,07,16,14,02,22.80
2009,07,16,14,03,22.80
2009,07,16,14,04,22.80
2009,07,16,14,05,22.90
2009,07,16,14,06,22.90
2009,07,16,14,07,22.90
2009,07,16,14,08,23.00
2009,07,16,14,09,23.10
2009,07,16,14,10,23.10
2009,07,16,14,11,23.00
2009,07,16,14,12,23.00
2009,07,16,14,13,23.00
2009,07,16,14,14,23.10
2009,07,16,14,15,23.10
2009,07,16,14,16,23.20
2009,07,16,14,17,23.20
2009,07,16,14,18,23.30
2009,07,16,14,19,23.40
2009,07,16,14,20,23.50
2009,07,16,14,21,23.50
2009,07,16,14,22,23.60
2009,07,16,14,23,23.60
2009,07,16,14,24,23.70
2009,07,16,14,25,23.70
2009,07,16,14,26,23.70
2009,07,16,14,27,23.70
2009,07,16,14,28,23.70
2009,07,16,14,29,23.80
2009,07,16,14,30,23.80
2009,07,16,14,31,23.80
2009,07,16,14,32,23.80
2009,07,16,14,33,23.80
2009,07,16,14,34,23.80
2009,07,16,14,35,23.80
2009,07,16,14,36,23.80
2009,07,16,14,37,23.90
2009,07,16,14,38,23.90
2009,07,16,14,39,23.90
2009,07,16,14,40,23.80
2009,07,16,14,41,23.70
2009,07,16,14,42,23.60
2009,07,16,14,43,23.60
2009,07,16,14,44,23.50
2009,07,16,14,45,23.50
2009,07,16,14,46,23.40
2009,07,16,14,47,23.40
2009,07,16,14,48,23.30
2009,07,16,14,49,23.30
2009,07,16,14,50,23.30
2009,07,16,14,51,23.20
2009,07,16,14,52,23.20
2009,07,16,14,53,23.10
2009,07,16,14,54,23.20
2009,07,16,14,55,23.20
2009,07,16,14,56,23.30
2009,07,16,14,57,23.40
2009,07,16,14,58,23.40
2009,07,16,14,59,23.50
2009,07,16,15,00,23.60
2009,07,16,15,01,23.60
2009,07,16,15,02,23.70
2009,07,16,15,03,23.70
2009,07,16,15,04,23.80
2009,07,16,15,05,23.80
2009,07,16,15,06,23.90
2009,07,16,15,07,23.90
2009,07,16,15,08,23.90
2009,07,16,15,09,24.00
2009,07,16,15,10,24.00
2009,07,16,15,11,24.10
2009,07,16,15,12,24.20
2009,07,16,15,13,24.20
2009,07,16,15,14,24.30
2009,07,16,15,15,24.30
2009,07,16,15,16,24.40
2009,07,16,15,17,24.50
2009,07,16,15,18,24.60
2009,07,16,15,19,24.70
2009,07,16,15,20,24.80
2009,07,16,15,21,24.80
2009,07,16,15,22,24.80
2009,07,16,15,23,24.80
2009,07,16,15,24,24.70
2009,07,16,15,25,24.70
2009,07,16,15,26,24.70
2009,07,16,15,27,24.70
2009,07,16,15,28,24.60
2009,07,16,15,29,24.60
2009,07,16,15,30,24.60
2009,07,16,15,31,24.60
2009,07,16,15,32,24.60
2009,07,16,15,33,24.70
2009,07,16,15,34,24.60
2009,07,16,15,35,24.60
2009,07,16,15,36,24.70
2009,07,16,15,37,24.70
2009,07,16,15,38,24.80
2009,07,16,15,39,24.80
2009,07,16,15,40,24.90
2009,07,16,15,41,24.90
2009,07,16,15,42,25.00
2009,07,16,15,43,24.90
2009,07,16,15,44,24.90
2009,07,16,15,45,24.90
2009,07,16,15,46,24.90
2009,07,16,15,47,25.00
2009,07,16,15,48,25.00
2009,07,16,15,49,25.00
2009,07,16,15,50,25.10
2009,07,16,15,51,25.10
2009,07,16,15,52,25.20
2009,07,16,15,53,25.30
2009,07,16,15,54,25.30
2009,07,16,15,55,25.40
2009,07,16,15,56,25.50
2009,07,16,15,57,25.60
2009,07,16,15,58,25.60
2009,07,16,15,59,25.50
2009,07,16,16,00,25.50
2009,07,16,16,01,25.50
2009,07,16,16,02,25.60
2009,07,16,16,03,25.60
2009,07,16,16,04,25.70
2009,07,16,16,05,25.80
2009,07,16,16,06,25.80
2009,07,16,16,07,25.80
2009,07,16,16,08,25.90
2009,07,16,16,09,25.90
2009,07,16,16,10,25.90
2009,07,16,16,11,25.90
2009,07,16,16,12,26.00
2009,07,16,16,13,26.00
2009,07,16,16,14,26.10
2009,07,16,16,15,26.00
2009,07,16,16,16,25.90
2009,07,16,16,17,25.90
2009,07,16,16,18,25.90
2009,07,16,16,19,25.90
2009,07,16,16,20,25.90
2009,07,16,16,21,26.00
2009,07,16,16,22,26.00
2009,07,16,16,23,26.00
2009,07,16,16,24,26.10
2009,07,16,16,25,26.10
2009,07,16,16,26,26.10
2009,07,16,16,27,26.20
2009,07,16,16,28,26.20
2009,07,16,16,29,26.30
2009,07,16,16,30,26.30
2009,07,16,16,31,26.40
2009,07,16,16,32,26.40
2009,07,16,16,33,26.40
2009,07,16,16,34,26.30
2009,07,16,16,35,26.30
2009,07,16,16,36,26.30
2009,07,16,16,37,26.40
2009,07,16,16,38,26.40
2009,07,16,16,39,26.30
2009,07,16,16,40,26.30
2009,07,16,16,41,26.30
2009,07,16,16,42,26.30
2009,07,16,16,43,26.20
2009,07,16,16,44,26.10
2009,07,16,16,45,26.00
2009,07,16,16,46,26.00
2009,07,16,16,47,26.00
2009,07,16,16,48,26.00
2009,07,16,16,49,26.00
2009,07,16,16,50,26.10
2009,07,16,16,51,26.10
2009,07,16,16,52,26.10
2009,07,16,16,53,26.20
2009,07,16,16,54,26.20
2009,07,16,16,55,26.30
2009,07,16,16,56,26.40
2009,07,16,16,57,26.50
2009,07,16,16,58,26.60
2009,07,16,16,59,26.60
2009,07,16,17,00,26.70
2009,07,16,17,01,26.70
2009,07,16,17,02,26.70
2009,07,16,17,03,26.70
2009,07,16,17,04,26.60
2009,07,16,17,05,26.60
2009,07,16,17,06,26.60
2009,07,16,17,07,26.60
2009,07,16,17,08,26.60
2009,07,16,17,09,26.70
2009,07,16,17,10,26.60
2009,07,16,17,11,26.70
2009,07,16,17,12,26.70
2009,07,16,17,13,26.70
2009,07,16,17,14,26.70
2009,07,16,17,15,26.70
2009,07,16,17,16,26.70
2009,07,16,17,17,26.60
2009,07,16,17,18,26.60
2009,07,16,17,19,26.60
2009,07,16,17,20,26.60
2009,07,16,17,21,26.60